Lexington Weather

Lexington, Massachusetts, USA

70°F
8/17/2022 6:20pm 
  • Lexington Conditions: Overcast
  • Temperature: 70.2°F / 21.2°CColder 0.3°F than last hour.
  • Dew Point: 59.2°FIncreased 0.6°Fsince last hour.
  • Relative Humidity: 68%Increased 2.0% since last hour.
  • Wind: Calm, 10-min avg: Calm, gust: None
  • Barometer: 29.85 inFalling 0.02  inHg/hr Falling Slowly
  • Visibility: 10 miles
  • Rain Today: 0.00 in
  •   

Regional Weather Roundup
for Boston, MA

        
000
ASUS41 KBOX 131610
RWRBOX

REGIONAL WEATHER ROUNDUP
NATIONAL WEATHER SERVICE BOSTON/NORTON MA
1200 PM EDT SAT AUG 13 2022

NOTE:  "FAIR" INDICATES FEW OR NO CLOUDS BELOW 12,000 FEET WITH NO 
SIGNIFICANT WEATHER AND/OR OBSTRUCTIONS TO VISIBILITY.

MAZALL-131700-
EASTERN MASSACHUSETTS
  
CITY           SKY/WX    TMP DP  RH WIND       PRES   REMARKS
BOSTON         MOSUNNY   71  53  52 E12       30.08F                  
BEVERLY        MOSUNNY   74  53  48 E8        30.07F                  
LAWRENCE       MOSUNNY   76  51  41 N9        30.10F                  
BEDFORD        MOSUNNY   76  51  41 VRB7      30.07F                  
BLUE HILL      NOT AVBL                                               
NORWOOD        PTSUNNY   74  50  42 VRB6      30.07F                  
MARSHFIELD     SUNNY     70  57  64 N8G15     30.08S                  
PLYMOUTH       SUNNY     72  57  59 NE12G17   30.08S                  
TAUNTON          N/A    N/A N/A N/A MISG      30.06F                  
NEW BEDFORD    SUNNY     76  52  43 N8        30.06F                  
$$

MAZALL-131700-
CAPE COD AND THE ISLANDS
  
CITY           SKY/WX    TMP DP  RH WIND       PRES   REMARKS
FALMOUTH       SUNNY     70  57  64 N12G21    30.07S                  
HYANNIS        PTSUNNY   71  59  65 N15G23    30.05F                  
CHATHAM        PTSUNNY   71  60  68 VRB6      30.06S                  
NANTUCKET      MOSUNNY   73  63  70 N17       30.05S                  
MARTHAS VNYRD  SUNNY     74  60  61 NE10      30.06S                  
$$
 
MAZALL-131700-
CENTRAL AND WESTERN MASSACHUSETTS
  
CITY           SKY/WX    TMP DP  RH WIND       PRES   REMARKS
WORCESTER      MOSUNNY   70  47  43 N8        30.11F                  
FITCHBURG      PTSUNNY   74  46  36 NW10      30.10F                  
ORANGE         PTSUNNY   73  50  44 N6        30.12F                  
SPRINGFIELD    MOSUNNY   73  49  42 NE10      30.07F                  
WESTFIELD      PTSUNNY   74  50  42 N10G16    30.10S                  
NORTH ADAMS    CLOUDY    68  54  60 VRB3      30.13F                  
PITTSFIELD     CLOUDY    68  50  52 NW7       30.13S                  
$$
 
RIZALL-131700-
RHODE ISLAND
  
CITY           SKY/WX    TMP DP  RH WIND       PRES   REMARKS
PROVIDENCE     MOSUNNY   76  49  38 N5        30.08F                  
NEWPORT        SUNNY     73  52  47 N10       30.07F                  
BLOCK ISLAND   SUNNY     71  56  58 VRB5      30.08F                  
SMITHFIELD     MOSUNNY   73  50  44 VRB3      30.09F                  
WESTERLY       SUNNY     76  48  37 N6        30.07F                  
$$
 
CTZALL-131700-
CONNECTICUT
  
CITY           SKY/WX    TMP DP  RH WIND       PRES   REMARKS
BRADLEY INTL   PTSUNNY   71  50  47 N10       30.11S                  
HARTFORD       PTSUNNY   76  49  38 NE12      30.09F                  
BRIDGEPORT     PTSUNNY   76  49  38 NE8       30.09S                  
DANBURY        CLOUDY    74  48  39 N13       30.12S                  
GROTON         MOSUNNY   79  48  33 N13       30.07F                  
NEW HAVEN      PTSUNNY   77  52  41 N9        30.10S                  
CHESTER        FAIR      77  46  33 NW14      30.10S                  
MERIDEN        MOSUNNY   75  49  39 VRB3      30.10S                  
WILLIMANTIC    PTSUNNY   74  47  38 NW9G18    30.09F                  
OXFORD         MOSUNNY   70  50  49 N6        30.12S                  
$$

MEZ002-015-021-024-NHZ003-005-008-011-012-014-VTZ005-008-131700-
NORTHERN NEW ENGLAND
  
CITY           SKY/WX    TMP DP  RH WIND       PRES   REMARKS
PORTLAND ME    PTSUNNY   74  55  51 SE8       30.09S                  
BANGOR ME      CLOUDY    74  53  48 N12       30.07F                  
CONCORD NH     MOSUNNY   75  50  41 VRB7      30.10S                  
MANCHESTER NH  PTSUNNY   76  49  38 N9        30.08F                  
NASHUA NH      SUNNY     74  50  42 NE6       30.10F                  
PORTSMOUTH NH  PTSUNNY   74  47  37 N7        30.08F                  
JAFFREY NH     PTSUNNY   71  50  47 NW8       30.12S                  
KEENE NH       CLOUDY    68  52  56 NE5         N/A                   
BURLINGTON VT  MOSUNNY   73  51  46 N12       30.14F                  
MT. WASHINGTON FOG       41  41 100 N15         N/A  VSB 1/8          
$$

NYZ052-076-131700-
EASTERN NEW YORK
  
CITY           SKY/WX    TMP DP  RH WIND       PRES   REMARKS
ALBANY         PTSUNNY   72  53  51 N10       30.14F                  
NEW YORK CITY  PTSUNNY   74  47  38 N9        30.10S                  
$$
 
ANZALL-131700-
MARINE OBSERVATIONS
  
STATION/POSITION TIME  TEMP    WIND        PRES    VSBY  WAVE
                       AIR SEA DIR/SP/G                  HT/PER
                 (UTC) (F)     (DEG/KT/KT) (MB)    (MI)  (FT/S)
BOSTON BUOY      NOT AVBL
BUZZARDS BAY     NOT AVBL
NANTUCKET SOUND  NOT AVBL
MASS BAY-STELLWA NOT AVBL
ISLE OF SHOALS   NOT AVBL
S OF BLOCK IS    NOT AVBL
$$

......................KEY.........................
  SKY/WX - SKY CONDITION/PRESENT WEATHER
  TMP    - TEMPERATURE IN FAHRENHEIT
  DWPT   - DEWPOINT IN FAHRENHEIT
  RH     - RELATIVE HUMIDITY IN PERCENT
  WIND   - DIRECTION AND SPEED IN MPH
  PRES   - MEAN SEA LEVEL PRESSURE IN INCHES OF HG
  WCI    - WIND CHILL INDEX
  VSB    - VISIBILITY IN MILES
  HX     - HEAT INDEX
  TC     - TEMPERATURE IN CELSIUS
  VRB    - VARIABLE WIND DIRECTION
  N/A    - NOT AVAILABLE
  
      

Other recent Regional Weather Roundups

Wed Aug 17, 5:10pm

Wed Aug 17, 4:10pm

Wed Aug 17, 3:10pm

Wed Aug 17, 2:10pm

Wed Aug 17, 1:10pm

Wed Aug 17, 12:10pm

Wed Aug 17, 11:10am

Wed Aug 17, 10:10am

Wed Aug 17, 9:10am

Wed Aug 17, 8:10am

Wed Aug 17, 7:10am

Wed Aug 17, 6:10am

Wed Aug 17, 5:10am

Wed Aug 17, 4:10am

Wed Aug 17, 3:10am

Wed Aug 17, 2:10am

Wed Aug 17, 1:10am

Wed Aug 17, 12:10am

Tue Aug 16, 11:10pm

Tue Aug 16, 10:10pm

Tue Aug 16, 9:10pm

Tue Aug 16, 8:10pm

Tue Aug 16, 7:10pm

Tue Aug 16, 6:10pm

Tue Aug 16, 5:10pm

Tue Aug 16, 4:10pm

Tue Aug 16, 3:10pm

Tue Aug 16, 2:10pm

Tue Aug 16, 1:10pm

Tue Aug 16, 12:10pm

Tue Aug 16, 11:10am

Tue Aug 16, 10:10am

Tue Aug 16, 9:10am

Tue Aug 16, 8:10am

Tue Aug 16, 7:10am

Tue Aug 16, 6:10am

Tue Aug 16, 5:10am

Tue Aug 16, 4:10am

Tue Aug 16, 3:10am

Tue Aug 16, 2:10am

Tue Aug 16, 1:10am

Tue Aug 16, 12:10am

Mon Aug 15, 11:10pm

Mon Aug 15, 10:10pm

Mon Aug 15, 9:10pm

Mon Aug 15, 8:10pm

Mon Aug 15, 7:10pm

Mon Aug 15, 6:10pm

Mon Aug 15, 5:10pm

Mon Aug 15, 4:10pm

Mon Aug 15, 3:10pm

Mon Aug 15, 2:10pm

Mon Aug 15, 1:10pm

Mon Aug 15, 12:10pm

Mon Aug 15, 11:10am

Mon Aug 15, 10:10am

Mon Aug 15, 9:10am

Mon Aug 15, 8:10am

Mon Aug 15, 7:10am

Mon Aug 15, 6:10am

Mon Aug 15, 5:10am

Mon Aug 15, 4:10am

Mon Aug 15, 3:10am

Mon Aug 15, 2:10am

Mon Aug 15, 1:10am

Mon Aug 15, 12:10am

Sun Aug 14, 11:10pm

Sun Aug 14, 10:10pm

Sun Aug 14, 9:10pm

Sun Aug 14, 8:10pm

Sun Aug 14, 7:10pm

Sun Aug 14, 6:10pm

Sun Aug 14, 5:10pm

Sun Aug 14, 4:10pm

Sun Aug 14, 3:10pm

Sun Aug 14, 2:10pm

Sun Aug 14, 1:10pm

Sun Aug 14, 12:10pm

Sun Aug 14, 11:10am

Sun Aug 14, 10:10am

Sun Aug 14, 9:10am

Sun Aug 14, 8:10am

Sun Aug 14, 7:10am

Sun Aug 14, 6:10am

Sun Aug 14, 5:10am

Sun Aug 14, 4:10am

Sun Aug 14, 3:10am

Sun Aug 14, 2:10am

Sun Aug 14, 1:10am

Sun Aug 14, 12:10am

Sat Aug 13, 11:10pm

Sat Aug 13, 10:10pm

Sat Aug 13, 9:10pm

Sat Aug 13, 8:10pm

Sat Aug 13, 7:10pm

Sat Aug 13, 6:10pm

Sat Aug 13, 5:10pm

Sat Aug 13, 4:10pm

Sat Aug 13, 3:10pm

Sat Aug 13, 2:10pm

Sat Aug 13, 1:10pm

Sat Aug 13, 11:10am

Sat Aug 13, 10:10am

Sat Aug 13, 9:10am

Sat Aug 13, 8:10am

Sat Aug 13, 7:10am

Sat Aug 13, 6:10am

Sat Aug 13, 5:10am

Sat Aug 13, 4:10am

Sat Aug 13, 3:10am

Sat Aug 13, 2:10am

Sat Aug 13, 1:10am

Sat Aug 13, 12:10am

Fri Aug 12, 11:10pm

Fri Aug 12, 10:10pm

Fri Aug 12, 9:10pm

Fri Aug 12, 8:10pm

Fri Aug 12, 7:10pm

Fri Aug 12, 6:10pm

Fri Aug 12, 5:10pm

Fri Aug 12, 4:10pm

Fri Aug 12, 3:10pm

Fri Aug 12, 2:10pm

Fri Aug 12, 1:10pm

Fri Aug 12, 12:10pm

Fri Aug 12, 11:10am

Fri Aug 12, 10:10am

Fri Aug 12, 9:10am

Fri Aug 12, 8:10am

Fri Aug 12, 7:10am

Fri Aug 12, 6:10am

Fri Aug 12, 5:10am

Fri Aug 12, 4:10am

Fri Aug 12, 3:10am

Fri Aug 12, 2:10am

Fri Aug 12, 1:10am

Fri Aug 12, 12:10am

Thu Aug 11, 11:10pm

Thu Aug 11, 10:10pm

Thu Aug 11, 9:10pm

Thu Aug 11, 8:10pm

Thu Aug 11, 7:10pm

Thu Aug 11, 6:10pm

Thu Aug 11, 5:10pm

Thu Aug 11, 4:10pm

Thu Aug 11, 3:10pm

Thu Aug 11, 2:10pm

Thu Aug 11, 1:10pm

Thu Aug 11, 12:10pm

Thu Aug 11, 11:10am

Thu Aug 11, 10:10am

Thu Aug 11, 9:10am

Thu Aug 11, 8:10am

Thu Aug 11, 7:10am

Thu Aug 11, 6:10am

Thu Aug 11, 5:10am

Thu Aug 11, 4:10am

Thu Aug 11, 3:10am

Thu Aug 11, 2:10am

Thu Aug 11, 1:10am

Thu Aug 11, 12:10am

Wed Aug 10, 11:10pm

Wed Aug 10, 10:10pm

Wed Aug 10, 9:10pm

Wed Aug 10, 8:10pm

Wed Aug 10, 7:10pm

Wed Aug 10, 6:10pm

Meta data:

ID: c6bdb876-1e27-4b40-b498-2863cb8f38af
Link: https://api.weather.gov/products/c6bdb876-1e27-4b40-b498-2863cb8f38af